Погода в Каменке

Россия / Смоленская область     55°00′59″N   32°18′34″E
темп.,
°C
ветер,
м/с
пор.,
м/с
влажн.,
%
обл.,
%
осадки,
мм/ч
давл.,
гПа
погр.,
м
2 августа, пн
пн200:00+17юв1165100 0.0 100911
03:00+17вюв358582 0.0 1008101
06:00+17юв379857 1.7 1006159
09:00+21юв51087100 1.9 1005479
12:00+26ю712626 0.0 10021375
15:00+29ююз91648100 0.6 9992935
18:00+23юз9166448 0.1 10001625
21:00+17зюз5117714 0.1 1003949
3 августа, вт
вт300:00+15з5109258 0.0 1006529
03:00+14з410918 0.0 1007435
06:00+12зюз3109840 0.0 1009364
09:00+17з476793 0.0 1010877
12:00+21зюз594699 0.0 10102283
15:00+21юз684911 0.0 10101910
18:00+18зюз395662 0.0 1011486
21:00+15зюз387395 0.0 1012150
4 августа, ср
ср400:00+13зюз24830 0.0 101367
03:00+12з24925 0.0 101479
06:00+12зюз239452 0.0 101581
09:00+17зюз23705 0.0 1016536
12:00+21зюз454996 0.1 10161648
15:00+23зюз4543100 0.1 10162362
18:00+21з245030 0.0 10161378
21:00+15с11772 0.0 101711
5 августа, чт
чт500:00+14ююв117824 0.0 101711
03:00+15юв117397 0.0 101714
06:00+15ссв117398 0.0 101725
09:00+15ссв2386100 0.4 1017120
12:00+13всв4797100 3.8 1017285
15:00+14св359594 5.0 1017271
18:00+17св4479100 0.0 1016555
21:00+13св3898100 0.0 1016228
6 августа, пт
пт600:00+13всв4998100 0.0 1015254
03:00+12всв399932 0.0 1015230
06:00+12всв4119834 0.0 1015322
09:00+17в61178100 0.0 1013517
12:00+19вюв51070100 0.0 1012770
15:00+17в51187100 1.1 1012500
18:00+19в71493100 2.3 1010587
21:00+18вюв6169399 3.4 1009512